Regional Weather Roundup
Issued by NWS

Home | Current Version | Previous Version | Graphics & Text | Print | Product List | Glossary On
Versions: 1 2 3 4 5 6 7 8 9 10 11 12 13 14 15 16 17 18 19 20 21 22 23 24 25 26 27 28 29 30 31 32 33 34 35 36 37 38 39 40 41 42 43 44 45 46 47 48 49 50
000
ASUS45 KCYS 281210
RWRWY

WYOMING REGIONAL WEATHER ROUNDUP
NATIONAL WEATHER SERVICE CHEYENNE WY
500 AM MST WED JAN 28 2015

NOTE:  "FAIR" INDICATES FEW OR NO CLOUDS BELOW 12,000 FEET
WITH NO SIGNIFICANT WEATHER AND/OR OBSTRUCTIONS TO VISIBILITY.

WYZ001-281300-
YELLOWSTONE NATIONAL PARK

CITY           SKY/WX    TMP DP  RH WIND       PRES   REMARKS
LK YELLOWSTONE   N/A     30  29  96 CALM      30.13S
6HR MIN TEMP:  30; 6HR MAX TEMP:  31; 6HR PCP:  0.22;

W YELLOWSTONE  NOT AVBL

$$
WYZ002>013-054>058-071-098>099-281300-
NORTHERN WYOMING

CITY           SKY/WX    TMP DP  RH WIND       PRES   REMARKS
JACKSON        CLOUDY    36  34  93 W6        30.12S WCI  31
CODY           CLOUDY    46  32  57 W5        30.01R
GREYBULL       MIX PCPN  32  31  96 E3        30.02R FOG
6HR MIN TEMP:  29; 6HR MAX TEMP:  33; 6HR PCP:  0.05;

WORLAND        CLOUDY    32  28  85 VRB5      30.01R WCI  27
6HR MIN TEMP:  22; 6HR MAX TEMP:  32; 6HR PCP: TRACE;

SHERIDAN       CLOUDY    50  33  52 W13       29.92R
6HR MIN TEMP:  35; 6HR MAX TEMP:  55;

BUFFALO        CLOUDY    48  27  44 NW10      29.93R
6HR MIN TEMP:  42; 6HR MAX TEMP:  52;

GILLETTE       CLOUDY    45  29  53 W9        29.90R
6HR MIN TEMP:  39; 6HR MAX TEMP:  46;

HULETT           N/A    N/A N/A N/A MISG        N/A
NEWCASTLE      FAIR      32  28  86 N8        29.91S WCI  25

$$
WYZ014>020-022>026-101>103-281300-
CENTRAL WYOMING

CITY           SKY/WX    TMP DP  RH WIND       PRES   REMARKS
BIG PINEY      CLOUDY    25  22  88 NE5       30.16S WCI  19
6HR MIN TEMP:  20; 6HR MAX TEMP:  25; 6HR PCP: TRACE;

PINEDALE       FLURRIES  23  23 100 CALM      30.18R
DUBOIS         FAIR      34  28  80 NW10      30.07R WCI  26
LANDER         FAIR      38  26  62 SE7       30.02S WCI  33
6HR MIN TEMP:  33; 6HR MAX TEMP:  46;

RIVERTON       FAIR      32  26  78 SW9       30.03R WCI  24
6HR MIN TEMP:  32; 6HR MAX TEMP:  41;

CASPER         FAIR      37  29  72 SW8       30.02S WCI  31
6HR MIN TEMP:  35; 6HR MAX TEMP:  43;

DOUGLAS        FAIR      41  30  65 NW12      29.99R
6HR MIN TEMP:  40; 6HR MAX TEMP:  51;


$$
WYZ021-027>030-104>119-281300-
SOUTHERN WYOMING

CITY           SKY/WX    TMP DP  RH WIND       PRES   REMARKS
EVANSTON       MOCLDY    33  30  88 SW10      30.19F WCI  25
6HR MIN TEMP:  32; 6HR MAX TEMP:  35; 6HR PCP: TRACE;

KEMMERER       CLOUDY    32  32 100 CALM      30.18S
FORT BRIDGER   PTSUNNY   36  32  87 W9        30.20F WCI  29
ROCK SPRINGS   CLOUDY    34  28  79 W12       30.18R WCI  25
6HR MIN TEMP:  31; 6HR MAX TEMP:  37; 6HR PCP: TRACE;

DIXON          CLOUDY    37  33  84 SW10G18   30.22R WCI  30
RAWLINS        FAIR      34  29  82 SW23      30.12S WCI  22
6HR MIN TEMP:  34; 6HR MAX TEMP:  40;

SARATOGA       FAIR      36  30  80 SW14      30.15S WCI  27
LARAMIE        FAIR      37  27  67 W20G25    30.08S WCI  27
6HR MIN TEMP:  35; 6HR MAX TEMP:  40; 6HR PCP: TRACE;

CHEYENNE       FAIR      45  30  55 W20G30    30.04R
6HR MIN TEMP:  45; 6HR MAX TEMP:  49;

TORRINGTON     FAIR      49  32  52 W17G24    29.95R
6HR MIN TEMP:  41; 6HR MAX TEMP:  51;

PINE BLUFFS    FAIR      43  32  65 NW17G23   30.00R

$$


USA.gov is the U.S. government's official web portal to all federal, state and local government web resources and services.